DLH3726 LGAV-HKJK

Flight info

Callsign DLH3726
Flight time 5h 7m
Altitude 41000
Route KEA UL617 MIL UJ56 SUD DCT SALUN L604 MEVDA P557 NUBAR P309 AVONO/N0481F430 A727 ANTAX/N0482F410 UA727 KAMAS KAMAS1A
Aircraft A359/H-SDE2E3GHIJ3J4J5LM1ORWXY/LB1D1

Departure

Time 2026-05-07 16:19
Airport Athens Eleftherios Venizelos International Airport (LGAV)

Arrival

Time 2026-05-07 21:27
Airport Jomo Kenyatta International Airport (HKJK)
Time Latitude Longitude Altitude Speed Heading
2026-05-07 15:23 37.92767 23.94085 296 ft 0 kts 34°
2026-05-07 16:01 37.92767 23.94086 296 ft 0 kts 34°
2026-05-07 16:01 37.92770 23.94088 300 ft 0 kts 34°
2026-05-07 16:01 37.92758 23.94074 301 ft 2 kts 69°
2026-05-07 16:02 37.92750 23.94054 301 ft 3 kts 59°
2026-05-07 16:02 37.92743 23.94034 299 ft 3 kts 77°
2026-05-07 16:02 37.92742 23.94011 298 ft 3 kts 115°
2026-05-07 16:02 37.92744 23.94003 299 ft 0 kts 130°
2026-05-07 16:07 37.92696 23.94072 302 ft 1 kts 131°
2026-05-07 16:09 37.92695 23.94072 297 ft 0 kts 131°
2026-05-07 16:09 37.92693 23.94076 297 ft 1 kts 131°
2026-05-07 16:09 37.92682 23.94090 297 ft 4 kts 133°
2026-05-07 16:10 37.92659 23.94121 301 ft 0 kts 130°
2026-05-07 16:10 37.92670 23.94200 303 ft 16 kts 54°
2026-05-07 16:10 37.92765 23.94295 302 ft 23 kts 38°
2026-05-07 16:11 37.92925 23.94445 300 ft 35 kts 37°
2026-05-07 16:11 37.93147 23.94658 298 ft 43 kts 37°
2026-05-07 16:11 37.93390 23.94893 295 ft 46 kts 37°
2026-05-07 16:11 37.93652 23.95139 298 ft 48 kts 37°
2026-05-07 16:12 37.93925 23.95399 285 ft 50 kts 37°
2026-05-07 16:12 37.94111 23.95576 284 ft 32 kts 37°
2026-05-07 16:12 37.94152 23.95615 283 ft 0 kts 37°
2026-05-07 16:12 37.94158 23.95621 283 ft 4 kts 37°
2026-05-07 16:13 37.94208 23.95668 283 ft 14 kts 37°
2026-05-07 16:13 37.94312 23.95768 284 ft 22 kts 37°
2026-05-07 16:13 37.94333 23.95788 281 ft 4 kts 38°
2026-05-07 16:13 37.94346 23.95802 281 ft 8 kts 43°
2026-05-07 16:14 37.94368 23.95835 281 ft 0 kts 54°
2026-05-07 16:14 37.94368 23.95836 281 ft 1 kts 55°
2026-05-07 16:14 37.94371 23.95842 281 ft 0 kts 56°
2026-05-07 16:15 37.94375 23.95850 281 ft 5 kts 59°
2026-05-07 16:15 37.94468 23.96060 279 ft 41 kts 44°
2026-05-07 16:15 37.94716 23.96295 276 ft 46 kts 36°
2026-05-07 16:15 37.94978 23.96540 274 ft 48 kts 37°
2026-05-07 16:16 37.95161 23.96716 271 ft 0 kts 37°
2026-05-07 16:16 37.95169 23.96724 271 ft 4 kts 37°
2026-05-07 16:16 37.95205 23.96759 271 ft 9 kts 37°
2026-05-07 16:16 37.95225 23.96778 271 ft 0 kts 37°
2026-05-07 16:17 37.95226 23.96779 271 ft 1 kts 37°
2026-05-07 16:17 37.95245 23.96799 271 ft 6 kts 40°
2026-05-07 16:17 37.95252 23.96807 271 ft 7 kts 43°
2026-05-07 16:18 37.95255 23.96810 270 ft 8 kts 44°
2026-05-07 16:18 37.95276 23.96890 270 ft 17 kts 93°
2026-05-07 16:18 37.95191 23.97012 271 ft 12 kts 189°
2026-05-07 16:18 37.95140 23.96974 272 ft 8 kts 220°
2026-05-07 16:19 37.94915 23.96753 276 ft 82 kts 215°
2026-05-07 16:19 37.94255 23.96142 281 ft 153 kts 216°
2026-05-07 16:19 37.93286 23.95274 793 ft 177 kts 211°
2026-05-07 16:19 37.92198 23.94589 1840 ft 178 kts 204°
2026-05-07 16:20 37.91014 23.93875 2428 ft 198 kts 206°
2026-05-07 16:20 37.89759 23.93059 3151 ft 207 kts 208°
2026-05-07 16:20 37.88464 23.92180 3888 ft 214 kts 209°
2026-05-07 16:20 37.87145 23.91264 4657 ft 218 kts 209°
2026-05-07 16:21 37.85799 23.90319 5374 ft 226 kts 210°
2026-05-07 16:21 37.84373 23.89315 6026 ft 244 kts 210°
2026-05-07 16:21 37.82841 23.88235 6633 ft 256 kts 210°
2026-05-07 16:21 37.81298 23.87148 6922 ft 258 kts 210°
2026-05-07 16:22 37.79732 23.86046 6988 ft 258 kts 210°
2026-05-07 16:22 37.78079 23.85137 6996 ft 261 kts 197°
2026-05-07 16:22 37.76263 23.85028 6992 ft 264 kts 172°
2026-05-07 16:22 37.74455 23.85628 6985 ft 274 kts 171°
2026-05-07 16:23 37.72532 23.85970 6984 ft 280 kts 175°
2026-05-07 16:23 37.70609 23.86176 6986 ft 281 kts 177°
2026-05-07 16:23 37.68637 23.86359 6987 ft 280 kts 177°
2026-05-07 16:23 37.66715 23.86537 6988 ft 280 kts 176°
2026-05-07 16:24 37.64773 23.86713 6990 ft 280 kts 177°
2026-05-07 16:24 37.62822 23.86883 6988 ft 280 kts 177°
2026-05-07 16:24 37.60874 23.87065 6986 ft 280 kts 176°
2026-05-07 16:24 37.58930 23.87253 6985 ft 281 kts 176°
2026-05-07 16:25 37.56986 23.87513 6985 ft 281 kts 175°
2026-05-07 16:25 37.55046 23.87787 6990 ft 281 kts 174°
2026-05-07 16:25 37.53102 23.88066 6988 ft 280 kts 174°
2026-05-07 16:25 37.51167 23.88354 6990 ft 280 kts 174°
2026-05-07 16:26 37.49232 23.88651 6984 ft 280 kts 174°
2026-05-07 16:26 37.47290 23.88949 6986 ft 280 kts 175°
2026-05-07 16:26 37.45354 23.89242 7099 ft 280 kts 174°
2026-05-07 16:26 37.43425 23.89533 7665 ft 286 kts 175°
2026-05-07 16:27 37.41439 23.89830 8762 ft 288 kts 175°
2026-05-07 16:27 37.39434 23.90129 9920 ft 291 kts 175°
2026-05-07 16:27 37.37378 23.90435 10660 ft 309 kts 175°
2026-05-07 16:27 37.35154 23.90762 11111 ft 333 kts 175°
2026-05-07 16:28 37.32808 23.91109 11803 ft 346 kts 176°
2026-05-07 16:28 37.30378 23.91471 12464 ft 354 kts 176°
2026-05-07 16:28 37.27926 23.91841 13541 ft 355 kts 176°
2026-05-07 16:28 37.25453 23.92214 14478 ft 360 kts 177°
2026-05-07 16:29 37.22948 23.92589 15321 ft 366 kts 177°
2026-05-07 16:29 37.20404 23.92970 16178 ft 371 kts 177°
2026-05-07 16:29 37.17821 23.93361 17033 ft 377 kts 177°
2026-05-07 16:29 37.15199 23.93767 17870 ft 382 kts 177°
2026-05-07 16:30 37.12570 23.94182 18659 ft 388 kts 177°
2026-05-07 16:30 37.09870 23.94609 19389 ft 393 kts 177°
2026-05-07 16:30 37.07140 23.95036 20143 ft 398 kts 177°
2026-05-07 16:30 37.04362 23.95468 20858 ft 405 kts 177°
2026-05-07 16:31 37.01538 23.95908 21622 ft 412 kts 177°
2026-05-07 16:31 36.98674 23.96356 22399 ft 418 kts 177°
2026-05-07 16:31 36.95764 23.96813 23163 ft 424 kts 177°
2026-05-07 16:31 36.92811 23.97280 23884 ft 430 kts 177°
2026-05-07 16:32 36.89822 23.97762 24514 ft 436 kts 177°
2026-05-07 16:32 36.86835 23.98259 25142 ft 441 kts 177°
2026-05-07 16:32 36.83735 23.98791 25766 ft 447 kts 177°
2026-05-07 16:32 36.80656 23.99343 26211 ft 457 kts 177°
2026-05-07 16:33 36.77484 23.99932 26772 ft 464 kts 177°
2026-05-07 16:33 36.74277 24.00546 27396 ft 469 kts 177°
2026-05-07 16:33 36.71031 24.01188 28002 ft 475 kts 177°
2026-05-07 16:33 36.67751 24.01854 28588 ft 481 kts 177°
2026-05-07 16:34 36.64426 24.02548 29174 ft 486 kts 177°
2026-05-07 16:34 36.61065 24.03265 29738 ft 492 kts 177°
2026-05-07 16:34 36.57667 24.03999 30185 ft 499 kts 177°
2026-05-07 16:34 36.54271 24.04738 30606 ft 504 kts 177°
2026-05-07 16:35 36.50797 24.05503 31096 ft 508 kts 177°
2026-05-07 16:35 36.47301 24.06284 31569 ft 513 kts 177°
2026-05-07 16:35 36.43778 24.07080 32031 ft 517 kts 177°
2026-05-07 16:35 36.40225 24.07886 32467 ft 521 kts 177°
2026-05-07 16:36 36.36640 24.08708 32846 ft 526 kts 177°
2026-05-07 16:36 36.33028 24.09534 33261 ft 530 kts 177°
2026-05-07 16:36 36.29375 24.10372 33678 ft 534 kts 177°
2026-05-07 16:36 36.25715 24.11230 34078 ft 538 kts 177°
2026-05-07 16:37 36.22018 24.12063 34412 ft 539 kts 180°
2026-05-07 16:37 36.18297 24.12576 34741 ft 538 kts 183°
2026-05-07 16:37 36.14543 24.12947 35045 ft 540 kts 184°
2026-05-07 16:37 36.10831 24.13238 35326 ft 543 kts 185°
2026-05-07 16:38 36.07040 24.13501 35611 ft 547 kts 185°
2026-05-07 16:38 36.03235 24.13758 35972 ft 548 kts 185°
2026-05-07 16:38 35.99425 24.14020 36407 ft 548 kts 185°
2026-05-07 16:38 35.95618 24.14281 36814 ft 549 kts 185°
2026-05-07 16:39 35.91792 24.14539 37196 ft 549 kts 185°
2026-05-07 16:39 35.87975 24.14792 37581 ft 549 kts 185°
2026-05-07 16:39 35.84158 24.15040 37960 ft 550 kts 185°
2026-05-07 16:39 35.80330 24.15286 38338 ft 550 kts 185°
2026-05-07 16:40 35.76500 24.15528 38699 ft 550 kts 185°
2026-05-07 16:40 35.72678 24.15765 39022 ft 549 kts 185°
2026-05-07 16:40 35.68921 24.15987 39423 ft 546 kts 185°
2026-05-07 16:40 35.65145 24.16196 39874 ft 541 kts 185°
2026-05-07 16:41 35.61407 24.16385 40348 ft 536 kts 185°
2026-05-07 16:41 35.57680 24.16558 40753 ft 533 kts 185°
2026-05-07 16:41 35.53984 24.16716 41062 ft 532 kts 185°
2026-05-07 16:42 35.46558 24.17006 41131 ft 533 kts 185°
2026-05-07 16:42 35.39144 24.17291 41124 ft 533 kts 185°
2026-05-07 16:43 35.31725 24.17576 41130 ft 533 kts 185°
2026-05-07 16:43 35.24316 24.17853 41132 ft 534 kts 185°
2026-05-07 16:44 35.16932 24.18139 41141 ft 533 kts 185°
2026-05-07 16:44 35.09508 24.18426 41140 ft 533 kts 185°
2026-05-07 16:45 35.02098 24.18713 41140 ft 533 kts 185°
2026-05-07 16:45 34.94712 24.19000 41130 ft 533 kts 185°
2026-05-07 16:46 34.87294 24.19279 41138 ft 533 kts 185°
2026-05-07 16:46 34.79878 24.19558 41137 ft 532 kts 185°
2026-05-07 16:47 34.72470 24.19838 41124 ft 532 kts 184°
2026-05-07 16:47 34.65047 24.20107 41140 ft 532 kts 185°
2026-05-07 16:48 34.57684 24.20372 41137 ft 532 kts 185°
2026-05-07 16:48 34.50265 24.20639 41134 ft 532 kts 185°
2026-05-07 16:49 34.42854 24.20904 41137 ft 532 kts 185°
2026-05-07 16:49 34.35447 24.21165 41137 ft 532 kts 185°
2026-05-07 16:50 34.29288 24.21383 41132 ft 532 kts 185°
2026-05-07 16:50 34.20681 24.21686 41131 ft 531 kts 185°
2026-05-07 16:51 34.14493 24.21903 41132 ft 530 kts 185°
2026-05-07 16:51 34.07159 24.22162 41133 ft 530 kts 185°
2026-05-07 16:52 33.99776 24.22423 41126 ft 530 kts 185°
2026-05-07 16:52 33.92406 24.22677 41132 ft 529 kts 185°
2026-05-07 16:53 33.85042 24.22930 41129 ft 529 kts 185°
2026-05-07 16:53 33.77708 24.23183 41129 ft 529 kts 185°
2026-05-07 16:54 33.70351 24.23420 41126 ft 527 kts 185°
2026-05-07 16:54 33.63006 24.24111 41127 ft 535 kts 173°
2026-05-07 16:54 33.59421 24.25356 41127 ft 541 kts 162°
2026-05-07 16:55 33.56031 24.27377 41137 ft 546 kts 151°
2026-05-07 16:55 33.49744 24.32568 41130 ft 549 kts 144°
2026-05-07 16:56 33.43719 24.38133 41132 ft 550 kts 143°
2026-05-07 16:56 33.34590 24.46471 41135 ft 550 kts 144°
2026-05-07 16:57 33.28482 24.51931 41135 ft 550 kts 144°
2026-05-07 16:57 33.22335 24.57396 41135 ft 550 kts 144°
2026-05-07 16:58 33.16184 24.62856 41135 ft 550 kts 144°
2026-05-07 16:58 33.10051 24.68294 41138 ft 549 kts 144°
2026-05-07 16:59 33.03910 24.73731 41137 ft 549 kts 144°
2026-05-07 16:59 32.97799 24.79132 41140 ft 549 kts 145°
2026-05-07 17:00 32.91655 24.84553 41143 ft 549 kts 145°
2026-05-07 17:00 32.85504 24.89970 41143 ft 549 kts 145°
2026-05-07 17:01 32.79357 24.95374 41139 ft 549 kts 145°
2026-05-07 17:01 32.73197 25.00780 41145 ft 549 kts 145°
2026-05-07 17:02 32.67091 25.06128 41139 ft 549 kts 145°
2026-05-07 17:02 32.60941 25.11507 41126 ft 548 kts 145°
2026-05-07 17:03 32.54792 25.16876 41141 ft 548 kts 145°
2026-05-07 17:03 32.48628 25.22247 41141 ft 549 kts 145°
2026-05-07 17:04 32.42492 25.27585 41144 ft 549 kts 145°
2026-05-07 17:04 32.36330 25.32936 41143 ft 548 kts 145°
2026-05-07 17:05 32.30214 25.38238 41130 ft 548 kts 145°
2026-05-07 17:05 32.24045 25.43578 41147 ft 548 kts 145°
2026-05-07 17:06 32.17880 25.48904 41141 ft 548 kts 145°
2026-05-07 17:06 32.11761 25.54182 41141 ft 548 kts 145°
2026-05-07 17:07 32.05590 25.59495 41147 ft 548 kts 145°
2026-05-07 17:07 31.99425 25.64795 41149 ft 548 kts 145°
2026-05-07 17:08 31.93252 25.70092 41150 ft 548 kts 145°
2026-05-07 17:08 31.87070 25.75387 41149 ft 552 kts 145°
2026-05-07 17:09 31.80835 25.80719 41149 ft 556 kts 145°
2026-05-07 17:09 31.74563 25.86074 41149 ft 558 kts 145°
2026-05-07 17:10 31.68301 25.91410 41141 ft 560 kts 145°
2026-05-07 17:10 31.61980 25.96789 41141 ft 562 kts 145°
2026-05-07 17:11 31.55637 26.02170 41138 ft 563 kts 145°
2026-05-07 17:11 31.49173 26.07354 41146 ft 563 kts 147°
2026-05-07 17:12 31.42678 26.12423 41146 ft 563 kts 147°
2026-05-07 17:12 31.36143 26.17504 41137 ft 563 kts 147°
2026-05-07 17:13 31.29583 26.22578 41145 ft 564 kts 147°
2026-05-07 17:13 31.23065 26.27612 41149 ft 564 kts 147°
2026-05-07 17:14 31.16509 26.32657 41134 ft 564 kts 147°
2026-05-07 17:14 31.09949 26.37701 41118 ft 564 kts 147°
2026-05-07 17:15 31.03377 26.42733 41134 ft 564 kts 147°
2026-05-07 17:15 30.96806 26.47757 41137 ft 564 kts 147°
2026-05-07 17:16 30.90236 26.52776 41135 ft 564 kts 147°
2026-05-07 17:16 30.83709 26.57758 41144 ft 564 kts 147°
2026-05-07 17:17 30.77137 26.62759 41116 ft 564 kts 147°
2026-05-07 17:17 30.70736 26.68044 41127 ft 564 kts 142°
2026-05-07 17:18 30.64485 26.73565 41129 ft 565 kts 144°
2026-05-07 17:18 30.58060 26.78831 41125 ft 565 kts 146°
2026-05-07 17:19 30.51532 26.83920 41127 ft 565 kts 147°
2026-05-07 17:19 30.45019 26.88932 41134 ft 565 kts 147°
2026-05-07 17:20 30.38475 26.93973 41125 ft 565 kts 147°
2026-05-07 17:20 30.31931 26.99022 41119 ft 565 kts 147°
2026-05-07 17:21 30.25399 27.04059 41118 ft 565 kts 147°
2026-05-07 17:21 30.18847 27.09102 41111 ft 565 kts 147°
2026-05-07 17:22 30.12306 27.14127 41107 ft 564 kts 147°
2026-05-07 17:22 30.05757 27.19151 41114 ft 565 kts 146°
2026-05-07 17:23 29.99254 27.24131 41103 ft 565 kts 147°
2026-05-07 17:23 29.92705 27.29139 41098 ft 564 kts 147°
2026-05-07 17:24 29.86153 27.34141 41087 ft 564 kts 146°
2026-05-07 17:24 29.79593 27.39140 41094 ft 564 kts 146°
2026-05-07 17:25 29.73092 27.44087 41093 ft 564 kts 147°
2026-05-07 17:25 29.66545 27.49061 41098 ft 564 kts 146°
2026-05-07 17:26 29.59988 27.54035 41089 ft 563 kts 147°
2026-05-07 17:26 29.53451 27.58986 41083 ft 563 kts 146°
2026-05-07 17:27 29.46900 27.63939 41086 ft 563 kts 146°
2026-05-07 17:27 29.40355 27.68881 41087 ft 563 kts 147°
2026-05-07 17:28 29.33849 27.73785 41084 ft 563 kts 147°
2026-05-07 17:28 29.27301 27.78713 41080 ft 563 kts 147°
2026-05-07 17:29 29.20744 27.83640 41080 ft 562 kts 147°
2026-05-07 17:29 29.14212 27.88541 41077 ft 561 kts 147°
2026-05-07 17:30 29.07722 27.93403 41080 ft 561 kts 147°
2026-05-07 17:30 29.01175 27.98300 41079 ft 561 kts 147°
2026-05-07 17:31 28.94645 28.03177 41063 ft 561 kts 147°
2026-05-07 17:31 28.88117 28.08046 41079 ft 559 kts 147°
2026-05-07 17:32 28.81602 28.12914 41075 ft 559 kts 146°
2026-05-07 17:32 28.76218 28.17006 41074 ft 558 kts 146°
2026-05-07 17:33 28.68704 28.22731 41078 ft 559 kts 146°
2026-05-07 17:33 28.62226 28.27645 41065 ft 558 kts 146°
2026-05-07 17:34 28.55764 28.32531 41063 ft 557 kts 146°
2026-05-07 17:34 28.49296 28.37413 41074 ft 557 kts 147°
2026-05-07 17:35 28.42878 28.42249 41071 ft 556 kts 147°
2026-05-07 17:35 28.36425 28.47105 41075 ft 556 kts 147°
2026-05-07 17:36 28.29969 28.51957 41075 ft 556 kts 147°
2026-05-07 17:36 28.23516 28.56799 41077 ft 555 kts 147°
2026-05-07 17:37 28.18163 28.60810 41073 ft 555 kts 147°
2026-05-07 17:37 28.11725 28.65628 41072 ft 555 kts 147°
2026-05-07 17:38 28.05281 28.70443 41085 ft 554 kts 147°
2026-05-07 17:38 27.98830 28.75257 41070 ft 554 kts 147°
2026-05-07 17:39 27.92433 28.80024 41073 ft 553 kts 147°
2026-05-07 17:39 27.86003 28.84807 41072 ft 552 kts 147°
2026-05-07 17:40 27.79581 28.89578 41076 ft 552 kts 147°
2026-05-07 17:40 27.73155 28.94345 41078 ft 552 kts 147°
2026-05-07 17:41 27.66732 28.99104 41067 ft 551 kts 148°
2026-05-07 17:41 27.60359 29.03818 41077 ft 551 kts 148°
2026-05-07 17:42 27.53943 29.08558 41075 ft 551 kts 148°
2026-05-07 17:42 27.47532 29.13287 41075 ft 551 kts 148°
2026-05-07 17:43 27.41113 29.18015 41077 ft 551 kts 148°
2026-05-07 17:43 27.34692 29.22738 41078 ft 551 kts 148°
2026-05-07 17:44 27.28312 29.27424 41078 ft 550 kts 148°
2026-05-07 17:44 27.21890 29.32135 41075 ft 550 kts 148°
2026-05-07 17:45 27.15481 29.36830 41082 ft 550 kts 148°
2026-05-07 17:45 27.09067 29.41522 41079 ft 550 kts 148°
2026-05-07 17:46 27.02661 29.46201 41068 ft 549 kts 148°
2026-05-07 17:46 26.96249 29.50878 41075 ft 549 kts 148°
2026-05-07 17:47 26.89841 29.55547 41080 ft 549 kts 148°
2026-05-07 17:47 26.83474 29.60178 41075 ft 548 kts 148°
2026-05-07 17:48 26.77079 29.64824 41069 ft 548 kts 148°
2026-05-07 17:48 26.70676 29.69469 41069 ft 548 kts 148°
2026-05-07 17:49 26.64275 29.74108 41067 ft 547 kts 148°
2026-05-07 17:49 26.57879 29.78739 41067 ft 547 kts 148°
2026-05-07 17:50 26.51534 29.83378 41072 ft 547 kts 148°
2026-05-07 17:50 26.45171 29.88041 41065 ft 547 kts 148°
2026-05-07 17:51 26.38802 29.92698 41060 ft 546 kts 148°
2026-05-07 17:51 26.32440 29.97336 41060 ft 546 kts 148°
2026-05-07 17:52 26.26113 30.01942 41059 ft 545 kts 148°
2026-05-07 17:52 26.19743 30.06536 41056 ft 545 kts 149°
2026-05-07 17:53 26.13313 30.11060 41050 ft 545 kts 149°
2026-05-07 17:53 26.06904 30.15559 41051 ft 544 kts 150°
2026-05-07 17:54 26.00505 30.20062 41045 ft 543 kts 150°
2026-05-07 17:54 25.94121 30.24557 41045 ft 543 kts 150°
2026-05-07 17:55 25.87770 30.29025 41039 ft 543 kts 150°
2026-05-07 17:55 25.81313 30.33374 41041 ft 541 kts 156°
2026-05-07 17:56 25.74324 30.36351 41026 ft 535 kts 165°
2026-05-07 17:56 25.67271 30.38861 41015 ft 534 kts 166°
2026-05-07 17:57 25.61327 30.40908 40995 ft 534 kts 167°
2026-05-07 17:57 25.53068 30.43769 40977 ft 534 kts 166°
2026-05-07 17:58 25.45984 30.46250 40970 ft 532 kts 166°
2026-05-07 17:58 25.38936 30.48732 40980 ft 531 kts 166°
2026-05-07 17:59 25.31938 30.51167 40972 ft 531 kts 167°
2026-05-07 17:59 25.24885 30.53617 40974 ft 530 kts 167°
2026-05-07 18:00 25.17826 30.56060 40982 ft 530 kts 167°
2026-05-07 18:00 25.10791 30.58496 40982 ft 529 kts 167°
2026-05-07 18:01 25.03769 30.60927 40976 ft 529 kts 167°
2026-05-07 18:01 24.96737 30.63359 40971 ft 529 kts 167°
2026-05-07 18:02 24.86244 30.66982 40968 ft 527 kts 167°
2026-05-07 18:03 24.79242 30.69397 40970 ft 527 kts 167°
2026-05-07 18:03 24.72241 30.71808 40970 ft 526 kts 167°
2026-05-07 18:04 24.65238 30.74216 40968 ft 526 kts 167°
2026-05-07 18:04 24.58245 30.76619 40965 ft 526 kts 167°
2026-05-07 18:05 24.51271 30.79013 40966 ft 525 kts 167°
2026-05-07 18:05 24.44339 30.81389 40966 ft 524 kts 167°
2026-05-07 18:06 24.37375 30.83772 40967 ft 524 kts 167°
2026-05-07 18:06 24.30400 30.86158 40966 ft 524 kts 167°
2026-05-07 18:07 24.23426 30.88540 40959 ft 524 kts 167°
2026-05-07 18:07 24.16499 30.90904 40960 ft 524 kts 167°
2026-05-07 18:08 24.09533 30.93280 40958 ft 524 kts 167°
2026-05-07 18:08 24.02564 30.95656 40939 ft 524 kts 167°
2026-05-07 18:09 23.95620 30.98062 40957 ft 522 kts 167°
2026-05-07 18:09 23.88705 31.00475 40958 ft 521 kts 167°
2026-05-07 18:10 23.81828 31.02875 40954 ft 521 kts 167°
2026-05-07 18:10 23.74915 31.05288 40955 ft 521 kts 167°
2026-05-07 18:11 23.68005 31.07704 40953 ft 520 kts 167°
2026-05-07 18:11 23.61147 31.10101 40958 ft 520 kts 167°
2026-05-07 18:12 23.54259 31.12508 40957 ft 520 kts 167°
2026-05-07 18:12 23.47356 31.14920 40958 ft 520 kts 167°
2026-05-07 18:13 23.40462 31.17327 40944 ft 519 kts 167°
2026-05-07 18:13 23.33579 31.19727 40950 ft 519 kts 167°
2026-05-07 18:14 23.26701 31.22123 40942 ft 518 kts 167°
2026-05-07 18:14 23.19877 31.24499 40941 ft 518 kts 167°
2026-05-07 18:15 23.13019 31.26916 40923 ft 516 kts 167°
2026-05-07 18:15 23.06194 31.29324 40944 ft 515 kts 167°
2026-05-07 18:16 22.99361 31.31734 40939 ft 515 kts 167°
2026-05-07 18:16 22.92545 31.34139 40938 ft 515 kts 167°
2026-05-07 18:17 22.85720 31.36544 40938 ft 515 kts 167°
2026-05-07 18:17 22.78940 31.38930 40938 ft 515 kts 167°
2026-05-07 18:18 22.72116 31.41325 40933 ft 515 kts 167°
2026-05-07 18:18 22.65285 31.43722 40933 ft 516 kts 167°
2026-05-07 18:19 22.58452 31.46120 40938 ft 516 kts 167°
2026-05-07 18:19 22.51629 31.48512 40934 ft 516 kts 167°
2026-05-07 18:20 22.44782 31.50904 40937 ft 517 kts 167°
2026-05-07 18:20 22.37983 31.53281 40936 ft 516 kts 167°
2026-05-07 18:21 22.31151 31.55696 40939 ft 516 kts 167°
2026-05-07 18:21 22.24329 31.58108 40937 ft 516 kts 167°
2026-05-07 18:22 22.17504 31.60508 40935 ft 515 kts 167°
2026-05-07 18:22 22.10687 31.62899 40936 ft 515 kts 167°
2026-05-07 18:23 22.03814 31.64958 40936 ft 511 kts 172°
2026-05-07 18:23 21.98055 31.66382 40935 ft 511 kts 172°
2026-05-07 18:24 21.91129 31.68084 40937 ft 509 kts 172°
2026-05-07 18:24 21.84250 31.69750 40930 ft 505 kts 172°
2026-05-07 18:25 21.77353 31.70837 40934 ft 499 kts 179°
2026-05-07 18:25 21.70446 31.71675 40937 ft 500 kts 177°
2026-05-07 18:26 21.63601 31.72801 40912 ft 501 kts 175°
2026-05-07 18:26 21.56740 31.74114 40933 ft 500 kts 174°
2026-05-07 18:27 21.49902 31.75463 40934 ft 499 kts 174°
2026-05-07 18:27 21.43067 31.76802 40934 ft 499 kts 174°
2026-05-07 18:28 21.36230 31.78130 40931 ft 499 kts 174°
2026-05-07 18:28 21.29431 31.79446 40933 ft 499 kts 174°
2026-05-07 18:29 21.22608 31.80765 40931 ft 498 kts 175°
2026-05-07 18:29 21.15799 31.82082 40930 ft 496 kts 175°
2026-05-07 18:30 21.08998 31.83394 40930 ft 496 kts 175°
2026-05-07 18:30 21.02199 31.84706 40923 ft 496 kts 175°
2026-05-07 18:31 20.95437 31.86008 40932 ft 496 kts 175°
2026-05-07 18:31 20.88638 31.87317 40928 ft 496 kts 175°
2026-05-07 18:32 20.81846 31.88624 40929 ft 496 kts 175°
2026-05-07 18:32 20.75054 31.89929 40910 ft 496 kts 175°
2026-05-07 18:33 20.68258 31.91234 40931 ft 496 kts 175°
2026-05-07 18:33 20.61468 31.92536 40917 ft 496 kts 175°
2026-05-07 18:34 20.54672 31.93839 40907 ft 495 kts 175°
2026-05-07 18:34 20.47885 31.95139 40904 ft 496 kts 175°
2026-05-07 18:35 20.41098 31.96443 40911 ft 495 kts 175°
2026-05-07 18:35 20.34355 31.97744 40909 ft 495 kts 175°
2026-05-07 18:36 20.27553 31.99038 40907 ft 495 kts 175°
2026-05-07 18:36 20.20779 32.00321 40903 ft 495 kts 175°
2026-05-07 18:37 20.13993 32.01611 40902 ft 494 kts 175°
2026-05-07 18:37 20.07275 32.02891 40900 ft 493 kts 175°
2026-05-07 18:38 20.00519 32.04177 40903 ft 493 kts 175°
2026-05-07 18:38 19.93758 32.05462 40897 ft 493 kts 175°
2026-05-07 18:39 19.87044 32.06737 40875 ft 492 kts 175°
2026-05-07 18:39 19.80296 32.08019 40891 ft 490 kts 175°
2026-05-07 18:40 19.73598 32.09290 40887 ft 488 kts 175°
2026-05-07 18:40 19.66911 32.10557 40886 ft 487 kts 175°
2026-05-07 18:41 19.60229 32.11820 40880 ft 487 kts 175°
2026-05-07 18:41 19.53595 32.13076 40879 ft 486 kts 176°
2026-05-07 18:42 19.46925 32.14337 40880 ft 485 kts 176°
2026-05-07 18:42 19.40283 32.15591 40881 ft 485 kts 176°
2026-05-07 18:43 19.33658 32.16840 40874 ft 485 kts 176°
2026-05-07 18:43 19.26975 32.18101 40863 ft 484 kts 176°
2026-05-07 18:44 19.20390 32.19342 40870 ft 484 kts 176°
2026-05-07 18:44 19.13752 32.20590 40865 ft 484 kts 176°
2026-05-07 18:45 19.07124 32.21837 40865 ft 484 kts 176°
2026-05-07 18:45 19.00479 32.23085 40862 ft 484 kts 176°
2026-05-07 18:46 18.93898 32.24321 40863 ft 483 kts 176°
2026-05-07 18:46 18.87283 32.25563 40861 ft 483 kts 176°
2026-05-07 18:47 18.80663 32.26803 40860 ft 483 kts 176°
2026-05-07 18:47 18.74049 32.28042 40862 ft 483 kts 176°
2026-05-07 18:48 18.67429 32.29281 40851 ft 483 kts 176°
2026-05-07 18:48 18.60841 32.30513 40857 ft 483 kts 176°
2026-05-07 18:49 18.54223 32.31749 40872 ft 483 kts 176°
2026-05-07 18:49 18.47603 32.32986 40871 ft 483 kts 176°
2026-05-07 18:50 18.40973 32.34223 40870 ft 483 kts 176°
2026-05-07 18:50 18.34354 32.35457 40861 ft 482 kts 176°
2026-05-07 18:51 18.27742 32.36689 40860 ft 482 kts 176°
2026-05-07 18:51 18.21165 32.37913 40869 ft 482 kts 176°
2026-05-07 18:52 18.14535 32.39146 40861 ft 482 kts 176°
2026-05-07 18:52 18.07918 32.40375 40835 ft 482 kts 176°
2026-05-07 18:53 18.01349 32.41595 40862 ft 482 kts 176°
2026-05-07 18:53 17.94725 32.42824 40856 ft 483 kts 176°
2026-05-07 18:54 17.88109 32.44051 40858 ft 483 kts 176°
2026-05-07 18:54 17.81490 32.45278 40854 ft 482 kts 176°
2026-05-07 18:55 17.74866 32.46504 40852 ft 483 kts 175°
2026-05-07 18:55 17.68289 32.47721 40854 ft 483 kts 175°
2026-05-07 18:56 17.61669 32.48945 40848 ft 483 kts 175°
2026-05-07 18:56 17.55047 32.50168 40854 ft 483 kts 175°
2026-05-07 18:57 17.48409 32.51394 40855 ft 483 kts 175°
2026-05-07 18:57 17.41788 32.52614 40853 ft 483 kts 175°
2026-05-07 18:58 17.35152 32.53838 40859 ft 484 kts 175°
2026-05-07 18:58 17.28566 32.55051 40852 ft 484 kts 175°
2026-05-07 18:59 17.21931 32.56272 40851 ft 483 kts 175°
2026-05-07 18:59 17.15293 32.57493 40843 ft 484 kts 175°
2026-05-07 19:00 17.08658 32.58712 40863 ft 484 kts 175°
2026-05-07 19:00 17.02062 32.59924 40849 ft 484 kts 175°
2026-05-07 19:01 16.95415 32.61144 40848 ft 484 kts 175°
2026-05-07 19:01 16.88770 32.62363 40841 ft 484 kts 175°
2026-05-07 19:02 16.82135 32.63579 40848 ft 484 kts 175°
2026-05-07 19:02 16.75505 32.64793 40849 ft 484 kts 175°
2026-05-07 19:03 16.68863 32.66008 40841 ft 484 kts 175°
2026-05-07 19:03 16.62278 32.67212 40841 ft 484 kts 175°
2026-05-07 19:04 16.55649 32.68424 40830 ft 483 kts 175°
2026-05-07 19:04 16.49011 32.69636 40837 ft 483 kts 175°
2026-05-07 19:05 16.42392 32.70844 40838 ft 483 kts 175°
2026-05-07 19:05 16.35769 32.72052 40837 ft 483 kts 175°
2026-05-07 19:06 16.29138 32.73260 40834 ft 483 kts 175°
2026-05-07 19:06 16.19247 32.75061 40835 ft 483 kts 175°
2026-05-07 19:07 16.12620 32.76267 40830 ft 483 kts 175°
2026-05-07 19:07 16.05995 32.77471 40830 ft 483 kts 175°
2026-05-07 19:08 15.99366 32.78676 40829 ft 483 kts 175°
2026-05-07 19:08 15.92746 32.79877 40829 ft 483 kts 175°
2026-05-07 19:09 15.86099 32.81083 40829 ft 484 kts 175°
2026-05-07 19:09 15.79500 32.82280 40829 ft 484 kts 175°
2026-05-07 19:10 15.72853 32.83484 40823 ft 484 kts 175°
2026-05-07 19:10 15.66215 32.84686 40823 ft 484 kts 175°
2026-05-07 19:11 15.60688 32.85686 40818 ft 484 kts 175°
2026-05-07 19:11 15.52954 32.87085 40820 ft 485 kts 175°
2026-05-07 19:12 15.47379 32.88092 40820 ft 485 kts 175°
2026-05-07 19:12 15.40766 32.89287 40820 ft 485 kts 174°
2026-05-07 19:13 15.34097 32.90491 40818 ft 485 kts 174°
2026-05-07 19:13 15.27443 32.91691 40815 ft 485 kts 174°
2026-05-07 19:14 15.20789 32.92891 40815 ft 485 kts 174°
2026-05-07 19:14 15.14136 32.94090 40812 ft 485 kts 174°
2026-05-07 19:15 15.07508 32.95283 40809 ft 485 kts 175°
2026-05-07 19:15 15.00849 32.96481 40803 ft 485 kts 174°
2026-05-07 19:16 14.94188 32.97678 40807 ft 486 kts 174°
2026-05-07 19:16 14.87522 32.98876 40807 ft 486 kts 174°
2026-05-07 19:17 14.80902 33.00065 40804 ft 486 kts 174°
2026-05-07 19:17 14.74243 33.01261 40801 ft 486 kts 174°
2026-05-07 19:18 14.67574 33.02456 40804 ft 486 kts 174°
2026-05-07 19:18 14.60912 33.03650 40801 ft 486 kts 174°
2026-05-07 19:19 14.54248 33.04845 40797 ft 486 kts 174°
2026-05-07 19:19 14.47584 33.06038 40799 ft 486 kts 174°
2026-05-07 19:20 14.40913 33.07231 40789 ft 486 kts 174°
2026-05-07 19:20 14.34298 33.08414 40798 ft 485 kts 174°
2026-05-07 19:21 14.27639 33.09604 40796 ft 485 kts 174°
2026-05-07 19:21 14.20979 33.10794 40796 ft 485 kts 174°
2026-05-07 19:22 14.14312 33.11984 40796 ft 485 kts 174°
2026-05-07 19:22 14.07645 33.13173 40793 ft 485 kts 174°
2026-05-07 19:23 14.00991 33.14359 40793 ft 485 kts 174°
2026-05-07 19:23 13.94383 33.15536 40793 ft 485 kts 174°
2026-05-07 19:24 13.87737 33.16720 40799 ft 484 kts 173°
2026-05-07 19:24 13.81094 33.17902 40799 ft 484 kts 173°
2026-05-07 19:25 13.74439 33.19081 40801 ft 484 kts 173°
2026-05-07 19:25 13.67830 33.20244 40801 ft 484 kts 173°
2026-05-07 19:26 13.61182 33.21415 40804 ft 484 kts 173°
2026-05-07 19:26 13.54529 33.22585 40807 ft 484 kts 173°
2026-05-07 19:27 13.47917 33.23750 40800 ft 484 kts 173°
2026-05-07 19:27 13.41261 33.24920 40811 ft 485 kts 173°
2026-05-07 19:28 13.34589 33.26092 40809 ft 485 kts 173°
2026-05-07 19:28 13.27976 33.27255 40809 ft 485 kts 173°
2026-05-07 19:29 13.21315 33.28457 40814 ft 485 kts 173°
2026-05-07 19:29 13.14662 33.29674 40811 ft 485 kts 173°
2026-05-07 19:30 13.08012 33.30866 40815 ft 485 kts 173°
2026-05-07 19:30 13.01362 33.32043 40819 ft 485 kts 173°
2026-05-07 19:31 12.94742 33.33212 40814 ft 485 kts 173°
2026-05-07 19:31 12.88079 33.34389 40818 ft 485 kts 173°
2026-05-07 19:32 12.81424 33.35560 40814 ft 485 kts 173°
2026-05-07 19:32 12.74766 33.36725 40819 ft 485 kts 173°
2026-05-07 19:33 12.68094 33.37893 40819 ft 485 kts 173°
2026-05-07 19:33 12.61438 33.39060 40825 ft 485 kts 173°
2026-05-07 19:34 12.54822 33.40219 40828 ft 485 kts 173°
2026-05-07 19:34 12.48159 33.41353 40825 ft 485 kts 173°
2026-05-07 19:35 12.41491 33.42474 40822 ft 485 kts 173°
2026-05-07 19:35 12.34825 33.43580 40840 ft 485 kts 173°
2026-05-07 19:36 12.28181 33.44582 40835 ft 485 kts 173°
2026-05-07 19:36 12.21490 33.45576 40841 ft 485 kts 173°
2026-05-07 19:37 12.14809 33.46569 40841 ft 485 kts 173°
2026-05-07 19:37 12.08125 33.47564 40839 ft 485 kts 173°
2026-05-07 19:38 12.01496 33.48561 40837 ft 485 kts 172°
2026-05-07 19:38 11.94927 33.50264 40833 ft 487 kts 166°
2026-05-07 19:39 11.88357 33.51976 40843 ft 486 kts 168°
2026-05-07 19:39 11.81714 33.53320 40844 ft 486 kts 171°
2026-05-07 19:40 11.75046 33.54487 40850 ft 486 kts 171°
2026-05-07 19:40 11.68415 33.55620 40850 ft 486 kts 171°
2026-05-07 19:41 11.61741 33.56774 40855 ft 486 kts 171°
2026-05-07 19:41 11.55062 33.57939 40855 ft 487 kts 171°
2026-05-07 19:42 11.48381 33.59108 40849 ft 487 kts 171°
2026-05-07 19:42 11.41703 33.60275 40869 ft 487 kts 171°
2026-05-07 19:43 11.35018 33.61442 40861 ft 487 kts 171°
2026-05-07 19:43 11.28334 33.62607 40861 ft 487 kts 171°
2026-05-07 19:44 11.21677 33.63768 40868 ft 488 kts 171°
2026-05-07 19:44 11.14983 33.64935 40865 ft 488 kts 171°
2026-05-07 19:45 11.08283 33.66102 40869 ft 488 kts 171°
2026-05-07 19:45 11.01580 33.67270 40874 ft 488 kts 171°
2026-05-07 19:46 10.94925 33.68427 40878 ft 488 kts 171°
2026-05-07 19:46 10.88208 33.69596 40876 ft 489 kts 171°
2026-05-07 19:47 10.81491 33.70778 40875 ft 489 kts 170°
2026-05-07 19:47 10.74775 33.71992 40881 ft 489 kts 171°
2026-05-07 19:48 10.68097 33.73124 40879 ft 489 kts 171°
2026-05-07 19:48 10.61370 33.74265 40875 ft 490 kts 171°
2026-05-07 19:49 10.54629 33.75427 40874 ft 491 kts 171°
2026-05-07 19:49 10.47873 33.76600 40871 ft 491 kts 171°
2026-05-07 19:50 10.41119 33.77665 40871 ft 491 kts 172°
2026-05-07 19:50 10.34395 33.78631 40871 ft 491 kts 172°
2026-05-07 19:51 10.27635 33.79611 40877 ft 490 kts 172°
2026-05-07 19:51 10.20874 33.80610 40876 ft 490 kts 172°
2026-05-07 19:52 10.14125 33.81614 40873 ft 490 kts 172°
2026-05-07 19:52 10.07382 33.82618 40870 ft 490 kts 172°
2026-05-07 19:53 10.00625 33.83623 40879 ft 490 kts 172°
2026-05-07 19:53 9.93906 33.84617 40872 ft 491 kts 174°
2026-05-07 19:54 9.87083 33.85530 40878 ft 491 kts 174°
2026-05-07 19:54 9.80338 33.86455 40880 ft 491 kts 174°
2026-05-07 19:55 9.73572 33.87437 40886 ft 491 kts 173°
2026-05-07 19:55 9.66788 33.88445 40886 ft 492 kts 173°
2026-05-07 19:56 9.60003 33.89454 40892 ft 492 kts 173°
2026-05-07 19:56 9.54365 33.90291 40903 ft 492 kts 173°
2026-05-07 19:57 9.47586 33.91296 40906 ft 492 kts 173°
2026-05-07 19:57 9.40828 33.92297 40892 ft 493 kts 173°
2026-05-07 19:58 9.34049 33.93386 40902 ft 494 kts 169°
2026-05-07 19:58 9.27371 33.95101 40903 ft 495 kts 167°
2026-05-07 19:59 9.20712 33.96943 40897 ft 496 kts 166°
2026-05-07 19:59 9.14045 33.98810 40891 ft 496 kts 166°
2026-05-07 20:00 9.07422 34.00655 40911 ft 496 kts 166°
2026-05-07 20:00 9.00761 34.02503 40904 ft 496 kts 166°
2026-05-07 20:01 8.94091 34.04350 40900 ft 496 kts 166°
2026-05-07 20:01 8.87427 34.06195 40897 ft 496 kts 166°
2026-05-07 20:02 8.80761 34.08040 40897 ft 496 kts 166°
2026-05-07 20:02 8.74141 34.09871 40894 ft 496 kts 166°
2026-05-07 20:03 8.67477 34.11714 40905 ft 496 kts 166°
2026-05-07 20:03 8.60816 34.13556 40901 ft 496 kts 166°
2026-05-07 20:04 8.54146 34.15399 40898 ft 496 kts 166°
2026-05-07 20:04 8.47480 34.17241 40894 ft 496 kts 166°
2026-05-07 20:05 8.40846 34.19073 40892 ft 497 kts 166°
2026-05-07 20:05 8.34162 34.20918 40892 ft 497 kts 166°
2026-05-07 20:06 8.27500 34.22757 40892 ft 497 kts 166°
2026-05-07 20:06 8.20811 34.24602 40893 ft 497 kts 166°
2026-05-07 20:07 8.14130 34.26445 40890 ft 498 kts 166°
2026-05-07 20:07 8.07440 34.28289 40888 ft 499 kts 166°
2026-05-07 20:08 8.00737 34.30134 40892 ft 499 kts 166°
2026-05-07 20:08 7.94067 34.31952 40891 ft 499 kts 166°
2026-05-07 20:09 7.87354 34.33782 40892 ft 499 kts 166°
2026-05-07 20:10 7.77288 34.36529 40892 ft 499 kts 166°
2026-05-07 20:10 7.70615 34.38351 40896 ft 499 kts 166°
2026-05-07 20:11 7.63896 34.40186 40900 ft 499 kts 166°
2026-05-07 20:11 7.57188 34.42016 40899 ft 499 kts 166°
2026-05-07 20:12 7.50519 34.43835 40905 ft 499 kts 166°
2026-05-07 20:12 7.43804 34.45665 40904 ft 499 kts 166°
2026-05-07 20:13 7.37107 34.47491 40904 ft 498 kts 166°
2026-05-07 20:13 7.30400 34.49319 40904 ft 499 kts 166°
2026-05-07 20:14 7.23690 34.51146 40904 ft 499 kts 166°
2026-05-07 20:14 7.17025 34.52961 40908 ft 499 kts 165°
2026-05-07 20:15 7.10319 34.54787 40912 ft 499 kts 165°
2026-05-07 20:15 7.03611 34.56613 40912 ft 499 kts 165°
2026-05-07 20:16 6.96911 34.58436 40916 ft 499 kts 166°
2026-05-07 20:16 6.90204 34.60260 40915 ft 499 kts 166°
2026-05-07 20:17 6.83498 34.62084 40913 ft 499 kts 166°
2026-05-07 20:17 6.76788 34.63908 40922 ft 499 kts 166°
2026-05-07 20:18 6.70078 34.65731 40922 ft 499 kts 166°
2026-05-07 20:18 6.63412 34.67534 40924 ft 499 kts 166°
2026-05-07 20:19 6.56690 34.69302 40929 ft 499 kts 166°
2026-05-07 20:19 6.49970 34.71061 40934 ft 499 kts 166°
2026-05-07 20:20 6.43234 34.72830 40936 ft 499 kts 166°
2026-05-07 20:20 6.36513 34.74600 40947 ft 500 kts 166°
2026-05-07 20:21 6.29771 34.76375 40949 ft 500 kts 166°
2026-05-07 20:21 6.23047 34.78146 40951 ft 500 kts 166°
2026-05-07 20:22 6.16322 34.79915 40953 ft 499 kts 166°
2026-05-07 20:22 6.09641 34.81673 40953 ft 499 kts 166°
2026-05-07 20:23 6.02912 34.83443 40956 ft 499 kts 166°
2026-05-07 20:23 5.96193 34.85210 40965 ft 499 kts 166°
2026-05-07 20:24 5.89477 34.86975 40967 ft 499 kts 166°
2026-05-07 20:24 5.82754 34.88742 40961 ft 499 kts 166°
2026-05-07 20:25 5.76030 34.90509 40961 ft 499 kts 166°
2026-05-07 20:25 5.69314 34.92273 40950 ft 499 kts 166°
2026-05-07 20:26 5.62631 34.94029 40952 ft 499 kts 166°
2026-05-07 20:26 5.55911 34.95793 40949 ft 499 kts 166°
2026-05-07 20:27 5.49187 34.97558 40946 ft 499 kts 166°
2026-05-07 20:27 5.42464 34.99323 40932 ft 499 kts 166°
2026-05-07 20:28 5.35788 35.01074 40916 ft 498 kts 166°
2026-05-07 20:28 5.29084 35.02836 40912 ft 498 kts 165°
2026-05-07 20:29 5.22385 35.04656 40902 ft 498 kts 165°
2026-05-07 20:29 5.15692 35.06497 40903 ft 498 kts 165°
2026-05-07 20:30 5.09005 35.08328 40891 ft 498 kts 165°
2026-05-07 20:30 5.02318 35.10154 40895 ft 498 kts 165°
2026-05-07 20:31 4.95634 35.11981 40894 ft 498 kts 165°
2026-05-07 20:31 4.88981 35.13803 40893 ft 498 kts 165°
2026-05-07 20:32 4.82278 35.15640 40895 ft 498 kts 165°
2026-05-07 20:32 4.75585 35.17474 40895 ft 498 kts 165°
2026-05-07 20:33 4.68895 35.19310 40894 ft 498 kts 165°
2026-05-07 20:33 4.62250 35.21141 40893 ft 498 kts 165°
2026-05-07 20:34 4.55558 35.22990 40897 ft 499 kts 165°
2026-05-07 20:34 4.48867 35.24847 40898 ft 499 kts 165°
2026-05-07 20:35 4.42166 35.26696 40896 ft 499 kts 165°
2026-05-07 20:35 4.35461 35.28543 40890 ft 499 kts 165°
2026-05-07 20:36 4.28750 35.30393 40894 ft 499 kts 165°
2026-05-07 20:36 4.22091 35.32233 40895 ft 499 kts 165°
2026-05-07 20:37 4.15392 35.34086 40894 ft 499 kts 165°
2026-05-07 20:37 4.08672 35.35946 40903 ft 499 kts 165°
2026-05-07 20:38 4.01980 35.37802 40902 ft 499 kts 165°
2026-05-07 20:38 3.95284 35.39485 40902 ft 498 kts 167°
2026-05-07 20:39 3.88534 35.41067 40897 ft 498 kts 167°
2026-05-07 20:39 3.81800 35.42745 40898 ft 498 kts 166°
2026-05-07 20:40 3.75083 35.44487 40898 ft 498 kts 166°
2026-05-07 20:40 3.68363 35.46247 40894 ft 498 kts 166°
2026-05-07 20:41 3.61647 35.48003 40896 ft 498 kts 166°
2026-05-07 20:41 3.54931 35.49756 40895 ft 498 kts 166°
2026-05-07 20:42 3.48259 35.51492 40893 ft 499 kts 166°
2026-05-07 20:42 3.41528 35.53253 40891 ft 499 kts 166°
2026-05-07 20:43 3.34810 35.55004 40896 ft 499 kts 166°
2026-05-07 20:43 3.28009 35.56370 40893 ft 498 kts 171°
2026-05-07 20:44 3.21209 35.57561 40895 ft 498 kts 171°
2026-05-07 20:44 3.14378 35.58747 40896 ft 498 kts 171°
2026-05-07 20:45 3.08649 35.59740 40897 ft 498 kts 171°
2026-05-07 20:45 3.01830 35.60922 40896 ft 497 kts 171°
2026-05-07 20:46 2.95003 35.62103 40898 ft 497 kts 171°
2026-05-07 20:46 2.88230 35.63276 40896 ft 498 kts 171°
2026-05-07 20:47 2.81400 35.64459 40903 ft 497 kts 171°
2026-05-07 20:47 2.74576 35.65640 40898 ft 498 kts 171°
2026-05-07 20:48 2.67756 35.66821 40905 ft 497 kts 171°
2026-05-07 20:48 2.60936 35.68000 40903 ft 497 kts 171°
2026-05-07 20:49 2.54107 35.69182 40901 ft 497 kts 171°
2026-05-07 20:49 2.47332 35.70354 40906 ft 497 kts 171°
2026-05-07 20:50 2.40510 35.71534 40907 ft 497 kts 171°
2026-05-07 20:50 2.33685 35.72715 40918 ft 498 kts 171°
2026-05-07 20:51 2.26861 35.73895 40917 ft 498 kts 171°
2026-05-07 20:51 2.20030 35.75077 40926 ft 498 kts 171°
2026-05-07 20:52 2.13201 35.76269 40914 ft 498 kts 171°
2026-05-07 20:52 2.06369 35.77474 40930 ft 499 kts 171°
2026-05-07 20:53 1.99518 35.78680 40931 ft 499 kts 171°
2026-05-07 20:53 1.92728 35.79884 40942 ft 499 kts 171°
2026-05-07 20:53 1.89302 35.80485 40828 ft 500 kts 171°
2026-05-07 20:54 1.85867 35.81053 40914 ft 499 kts 171°
2026-05-07 20:54 1.79011 35.82187 40949 ft 499 kts 171°
2026-05-07 20:55 1.72145 35.83361 40964 ft 499 kts 171°
2026-05-07 20:55 1.65297 35.84541 40959 ft 499 kts 171°
2026-05-07 20:56 1.58478 35.85727 40954 ft 499 kts 171°
2026-05-07 20:56 1.51640 35.86933 40958 ft 500 kts 171°
2026-05-07 20:57 1.44787 35.88141 40962 ft 500 kts 171°
2026-05-07 20:57 1.37931 35.89347 40964 ft 500 kts 171°
2026-05-07 20:58 1.31052 35.90558 40981 ft 503 kts 171°
2026-05-07 20:58 1.24211 35.91763 40979 ft 502 kts 171°
2026-05-07 20:59 1.17340 35.92972 40990 ft 500 kts 171°
2026-05-07 20:59 1.10474 35.94181 40995 ft 500 kts 171°
2026-05-07 21:00 1.03607 35.95390 41013 ft 501 kts 171°
2026-05-07 21:00 0.96776 35.96592 41016 ft 501 kts 171°
2026-05-07 21:01 0.89912 35.97796 41014 ft 500 kts 171°
2026-05-07 21:01 0.83045 35.98975 41029 ft 500 kts 171°
2026-05-07 21:02 0.76175 36.00155 41033 ft 500 kts 171°
2026-05-07 21:02 0.69354 36.01329 41045 ft 500 kts 171°
2026-05-07 21:03 0.62499 36.02509 41044 ft 500 kts 171°
2026-05-07 21:03 0.55635 36.03688 41058 ft 500 kts 171°
2026-05-07 21:04 0.48778 36.04859 41075 ft 500 kts 171°
2026-05-07 21:04 0.41914 36.06033 41084 ft 500 kts 171°
2026-05-07 21:05 0.35047 36.07217 41104 ft 500 kts 171°
2026-05-07 21:05 0.28201 36.08537 41105 ft 501 kts 169°
2026-05-07 21:06 0.21342 36.09828 41124 ft 502 kts 170°
2026-05-07 21:06 0.14461 36.11066 41118 ft 500 kts 170°
2026-05-07 21:06 0.11117 36.11660 40923 ft 489 kts 170°
2026-05-07 21:07 0.07804 36.12246 40648 ft 479 kts 170°
2026-05-07 21:07 0.04514 36.12827 39837 ft 483 kts 170°
2026-05-07 21:07 0.01170 36.13416 38979 ft 493 kts 170°
2026-05-07 21:07 -0.02252 36.14018 38419 ft 504 kts 171°
2026-05-07 21:08 -0.05718 36.14628 38211 ft 507 kts 171°
2026-05-07 21:08 -0.12673 36.15852 38134 ft 511 kts 170°
2026-05-07 21:09 -0.19678 36.17085 38130 ft 511 kts 170°
2026-05-07 21:09 -0.26691 36.18319 38148 ft 511 kts 171°
2026-05-07 21:10 -0.33692 36.19552 38054 ft 506 kts 170°
2026-05-07 21:10 -0.37143 36.20159 37358 ft 502 kts 170°
2026-05-07 21:10 -0.40603 36.20767 36229 ft 508 kts 170°
2026-05-07 21:10 -0.44108 36.21384 35166 ft 512 kts 170°
2026-05-07 21:11 -0.47627 36.22003 34172 ft 515 kts 170°
2026-05-07 21:11 -0.51183 36.22628 33080 ft 519 kts 170°
2026-05-07 21:11 -0.58323 36.23885 31384 ft 528 kts 169°
2026-05-07 21:12 -0.61943 36.24522 30687 ft 530 kts 169°
2026-05-07 21:12 -0.65590 36.25164 29925 ft 533 kts 170°
2026-05-07 21:12 -0.69223 36.25804 29167 ft 525 kts 170°
2026-05-07 21:12 -0.72810 36.26435 28460 ft 521 kts 170°
2026-05-07 21:13 -0.76355 36.27059 27761 ft 513 kts 169°
2026-05-07 21:13 -0.79857 36.27675 27074 ft 508 kts 170°
2026-05-07 21:13 -0.83272 36.28276 26382 ft 501 kts 170°
2026-05-07 21:13 -0.86703 36.28880 25745 ft 498 kts 170°
2026-05-07 21:14 -0.90112 36.29480 25332 ft 496 kts 170°
2026-05-07 21:14 -0.93509 36.30078 25190 ft 495 kts 169°
2026-05-07 21:14 -0.96892 36.30673 25169 ft 494 kts 169°
2026-05-07 21:14 -1.00263 36.31266 25027 ft 485 kts 169°
2026-05-07 21:15 -1.03558 36.31846 24330 ft 479 kts 169°
2026-05-07 21:15 -1.06840 36.32424 23417 ft 479 kts 169°
2026-05-07 21:15 -1.10113 36.33000 22573 ft 475 kts 169°
2026-05-07 21:15 -1.13314 36.33564 21728 ft 467 kts 169°
2026-05-07 21:16 -1.16478 36.34120 20469 ft 455 kts 169°
2026-05-07 21:16 -1.19586 36.34668 18982 ft 450 kts 169°
2026-05-07 21:16 -1.22637 36.35205 17765 ft 439 kts 169°
2026-05-07 21:16 -1.25625 36.35731 17220 ft 438 kts 169°
2026-05-07 21:17 -1.28626 36.36260 16832 ft 437 kts 169°
2026-05-07 21:17 -1.31536 36.36828 16101 ft 413 kts 165°
2026-05-07 21:17 -1.34123 36.37930 14862 ft 402 kts 146°
2026-05-07 21:17 -1.36147 36.39888 14135 ft 413 kts 124°
2026-05-07 21:18 -1.37502 36.42407 13786 ft 405 kts 114°
2026-05-07 21:18 -1.38606 36.44909 12926 ft 386 kts 113°
2026-05-07 21:18 -1.39692 36.47408 12205 ft 396 kts 114°
2026-05-07 21:18 -1.40779 36.49872 11554 ft 376 kts 114°
2026-05-07 21:19 -1.41810 36.52184 10968 ft 353 kts 114°
2026-05-07 21:19 -1.42755 36.54291 10830 ft 319 kts 114°
2026-05-07 21:19 -1.43620 36.56215 10753 ft 289 kts 114°
2026-05-07 21:19 -1.44410 36.57968 10663 ft 266 kts 115°
2026-05-07 21:20 -1.45184 36.59681 10530 ft 275 kts 115°
2026-05-07 21:20 -1.45973 36.61426 10395 ft 275 kts 115°
2026-05-07 21:20 -1.46759 36.63163 10286 ft 274 kts 115°
2026-05-07 21:20 -1.47546 36.64900 9982 ft 277 kts 115°
2026-05-07 21:21 -1.48327 36.66711 9701 ft 287 kts 110°
2026-05-07 21:21 -1.48643 36.68663 9237 ft 287 kts 86°
2026-05-07 21:21 -1.48115 36.70576 8812 ft 288 kts 63°
2026-05-07 21:21 -1.46996 36.72226 8377 ft 286 kts 52°
2026-05-07 21:22 -1.45755 36.73772 8063 ft 280 kts 52°
2026-05-07 21:22 -1.44614 36.75289 7941 ft 266 kts 54°
2026-05-07 21:22 -1.43564 36.76743 7865 ft 244 kts 54°
2026-05-07 21:22 -1.42625 36.78032 7869 ft 215 kts 54°
2026-05-07 21:23 -1.41812 36.79165 7871 ft 186 kts 55°
2026-05-07 21:23 -1.41128 36.80131 7883 ft 161 kts 55°
2026-05-07 21:23 -1.40507 36.81004 7872 ft 149 kts 52°
2026-05-07 21:23 -1.39912 36.81831 7863 ft 144 kts 54°
2026-05-07 21:24 -1.39328 36.82636 7852 ft 141 kts 54°
2026-05-07 21:24 -1.38757 36.83420 7823 ft 139 kts 54°
2026-05-07 21:24 -1.38187 36.84201 7792 ft 140 kts 53°
2026-05-07 21:24 -1.37618 36.84986 7734 ft 140 kts 54°
2026-05-07 21:25 -1.37044 36.85771 7709 ft 140 kts 54°
2026-05-07 21:25 -1.36469 36.86556 7724 ft 140 kts 54°
2026-05-07 21:25 -1.35896 36.87366 7573 ft 147 kts 56°
2026-05-07 21:25 -1.35253 36.88250 6974 ft 165 kts 53°
2026-05-07 21:26 -1.34525 36.89206 6299 ft 178 kts 52°
2026-05-07 21:26 -1.33796 36.90186 5773 ft 176 kts 53°
2026-05-07 21:26 -1.33107 36.91130 5548 ft 160 kts 56°
2026-05-07 21:26 -1.32500 36.92001 5352 ft 148 kts 48°
2026-05-07 21:27 -1.31924 36.92777 5341 ft 131 kts 54°
2026-05-07 21:27 -1.31419 36.93466 5316 ft 106 kts 54°
2026-05-07 21:27 -1.31190 36.93887 5314 ft 43 kts 75°
2026-05-07 21:27 -1.31177 36.94017 5312 ft 0 kts 120°
2026-05-07 21:28 -1.31333 36.94033 5315 ft 47 kts 204°
2026-05-07 21:28 -1.31552 36.93827 5312 ft 39 kts 231°
2026-05-07 21:28 -1.31719 36.93607 5316 ft 40 kts 233°
2026-05-07 21:29 -1.31884 36.93382 5333 ft 38 kts 235°
2026-05-07 21:29 -1.32025 36.93187 5334 ft 34 kts 232°
2026-05-07 21:29 -1.32170 36.92991 5339 ft 35 kts 234°
2026-05-07 21:29 -1.32317 36.92796 5338 ft 33 kts 237°
2026-05-07 21:30 -1.32351 36.92731 5344 ft 0 kts 242°
2026-05-07 21:30 -1.32391 36.92667 5344 ft 26 kts 232°
2026-05-07 21:30 -1.32568 36.92442 5348 ft 53 kts 228°
2026-05-07 21:30 -1.32801 36.92261 5351 ft 30 kts 208°
2026-05-07 21:31 -1.32898 36.92221 5352 ft 2 kts 197°
2026-05-07 21:31 -1.33016 36.92199 5351 ft 41 kts 185°
2026-05-07 21:32 -1.33131 36.92170 5355 ft 1 kts 242°